Volver al catálogo

IONOSFERA-M 02

ActivoCienciaSSO
NORAD 61736·PAYLOAD·🇷🇺 Russia

Lanzado Nov 4, 2024 desde Vostochny Cosmodrome

Loading…

Próximos Pases (próximas 24 horas)

TLE

ActualizadoSource: Space-Track

Época: Sep 14, 2026, 14:40 UTC

1 61736U 24199B   26257.61168762  .00000035  00000-0  35255-4 0  9999
2 61736  98.7017 129.6905 0001960  74.9454 285.1941 14.22771515143540

Sigue IONOSFERA-M 02 en tiempo real con AllMySat

Download on the App Store